This is the latest recevied weather packets stored in our database for station/object KB3VSP. If no packets are shown the sender has not sent any weather packets the latest 10 day(s).
| Time | Temp. | Humidity | Pressure | Rain* | Wind** | Luminosity | Snow |
|---|---|---|---|---|---|---|---|
| 1778203730 | 9.44° C | 63% | 1013.4 hPa | 0 mm | - | 0 W/m² | - |
| 1778203427 | 10° C | 62% | 1013.5 hPa | 0 mm | - | 0 W/m² | - |
| 1778203124 | 10° C | 61% | 1013.3 hPa | 0 mm | - | 0 W/m² | - |
| 1778202822 | 10° C | 61% | 1013.1 hPa | 0 mm | - | 0 W/m² | - |
| 1778202519 | 10° C | 60% | 1013.3 hPa | 0 mm | - | 0 W/m² | - |
| 1778202216 | 10° C | 60% | 1013.3 hPa | 0 mm | - | 0 W/m² | - |
| 1778201913 | 10.56° C | 60% | 1013 hPa | 0 mm | - | 0 W/m² | - |
| 1778201610 | 10.56° C | 58% | 1012.7 hPa | 0 mm | - | 0 W/m² | - |
| 1778201306 | 10.56° C | 58% | 1013.1 hPa | 0 mm | - | 0 W/m² | - |
| 1778201002 | 11.11° C | 56% | 1012.7 hPa | 0 mm | - | 0 W/m² | - |
| 1778200699 | 11.11° C | 56% | 1012.9 hPa | 0 mm | - | 0 W/m² | - |
| 1778200397 | 11.11° C | 55% | 1012.8 hPa | 0 mm | - | 0 W/m² | - |
| 1778200093 | 11.11° C | 52% | 1012.6 hPa | 0 mm | - | 0 W/m² | - |
| 1778199790 | 11.67° C | 51% | 1012.6 hPa | 0 mm | - | 0 W/m² | - |
| 1778199486 | 11.67° C | 50% | 1012.4 hPa | 0 mm | - | 0 W/m² | - |
| 1778199182 | 11.67° C | 51% | 1012.4 hPa | 0 mm | - | 2 W/m² | - |
| 1778198878 | 11.67° C | 50% | 1012.3 hPa | 0 mm | - | 3 W/m² | - |
| 1778198575 | 12.22° C | 50% | 1012.2 hPa | 0 mm | - | 5 W/m² | - |
| 1778198272 | 12.22° C | 50% | 1012.2 hPa | 0 mm | - | 7 W/m² | - |
| 1778197969 | 12.22° C | 50% | 1012 hPa | 0 mm | - | 7 W/m² | - |
| 1778197666 | 12.22° C | 50% | 1012 hPa | 0 mm | - | 9 W/m² | - |
| 1778197363 | 12.78° C | 50% | 1012.2 hPa | 0 mm | - | 13 W/m² | - |
| 1778197059 | 12.78° C | 46% | 1012.3 hPa | 0 mm | - | 20 W/m² | - |
| 1778196757 | 12.78° C | 46% | 1011.8 hPa | 0 mm | - | 22 W/m² | - |
| 1778196454 | 12.78° C | 45% | 1011.8 hPa | 0 mm | - | 34 W/m² | - |
* Rain latest hour (hover to see other rain measurements)
** Current wind speed in m/s (hover to see current wind gust speed)